GW2818 Weather Reports


Display with metric or nautical units.
time (UTC)temp
F
wind
direction
speed
MPH
gust
MPH
rain 1hr
in
rain 24hr
in
rain mn
in
humidity
%
barometer
mb
20260504034546 41 0 0.0 0.0 0.00 0.00 0.00 79 1013.8
20260504033037 42 0 0.0 0.0 0.00 0.00 0.00 77 1013.7
20260504031550 42 0 0.0 0.0 0.00 0.00 0.00 76 1013.8
20260504030055 43 0 0.0 0.0 0.00 0.00 0.00 76 1013.9
20260504024539 43 0 0.0 0.0 0.00 0.00 0.00 74 1014.0
20260504023041 44 0 0.0 0.0 0.00 0.00 0.00 73 1014.2
20260504021545 45 0 0.0 0.0 0.00 0.00 0.00 70 1014.0
20260504020038 46 0 0.0 0.0 0.00 0.00 0.00 68 1014.1
20260504014543 47 0 0.0 0.0 0.00 0.00 0.00 66 1014.1
20260504013050 47 0 0.0 0.0 0.00 0.00 0.00 63 1014.0
20260504011541 48 0 0.0 0.0 0.00 0.00 0.00 62 1013.9
20260504010050 49 0 0.0 0.0 0.00 0.00 0.00 59 1013.9
20260504004544 51 0 0.0 0.0 0.00 0.00 0.00 58 1013.9
20260504003035 52 0 0.0 0.0 0.00 0.00 0.00 56 1013.8
20260504001539 52 0 0.0 1.0 0.00 0.00 0.00 53 1013.8
20260504000040 53 0 0.0 2.0 0.00 0.00 0.00 52 1013.8
20260503234542 54 0 0.0 0.0 0.00 0.00 0.00 53 1013.8
20260503233038 55 65 0.0 3.0 0.00 0.00 0.00 54 1013.7
20260503231536 55 0 0.0 2.0 0.00 0.00 0.00 49 1013.8
20260503230050 55 0 0.0 3.0 0.00 0.00 0.00 49 1013.8
20260503224543 56 0 0.0 3.0 0.00 0.00 0.00 49 1013.8
20260503223051 57 0 0.0 3.0 0.00 0.00 0.00 49 1013.9
20260503221546 57 0 0.0 2.0 0.00 0.00 0.00 49 1014.0
20260503220039 59 60 0.0 5.0 0.00 0.00 0.00 45 1013.9
20260503214554 60 276 0.0 3.0 0.00 0.00 0.00 43 1013.8
20260503213036 61 0 0.0 10.0 0.00 0.00 0.00 48 1013.6
20260503211541 59 0 0.0 5.0 0.00 0.00 0.00 47 1013.7
20260503210039 60 259 0.0 4.0 0.00 0.00 0.00 44 1013.7
20260503204543 60 0 0.0 2.0 0.00 0.00 0.00 44 1013.8
20260503203037 59 108 0.0 6.0 0.00 0.00 0.00 44 1014.3
20260503201541 59 0 1.0 4.0 0.00 0.00 0.00 44 1014.4
20260503200036 59 94 1.0 6.0 0.00 0.00 0.00 46 1014.5
20260503194546 60 276 1.0 6.0 0.00 0.00 0.00 41 1014.9
20260503193039 60 0 0.0 4.0 0.00 0.00 0.00 45 1015.0
20260503191538 62 58 0.0 2.0 0.00 0.00 0.00 43 1015.3
20260503190043 62 97 0.0 4.0 0.00 0.00 0.00 42 1015.4
20260503184536 63 150 1.0 5.0 0.00 0.00 0.00 48 1015.5
20260503183050 63 0 0.0 5.0 0.00 0.00 0.00 41 1015.7
20260503181557 60 179 0.0 5.0 0.00 0.00 0.00 47 1015.9
20260503180048 60 63 1.0 6.0 0.00 0.00 0.00 44 1016.0
20260503174541 60 0 0.0 4.0 0.00 0.00 0.00 50 1016.2
20260503173040 58 134 1.0 4.0 0.00 0.00 0.00 47 1016.4
20260503171536 57 98 0.0 7.0 0.00 0.00 0.00 47 1016.5
20260503081542 30 0 0.0 0.0 0.00 0.01 0.00 93 1016.5
20260503071537 31 0 0.0 0.0 0.00 0.01 0.00 94 1016.3
20260503054541 31 0 0.0 0.0 0.00 0.01 0.00 93 1016.5
20260503053040 31 0 0.0 0.0 0.00 0.01 0.00 93 1016.5
20260503051539 32 0 0.0 0.0 0.00 0.01 0.00 92 1016.6
20260503050036 31 0 0.0 0.0 0.00 0.01 0.00 92 1016.6
20260503044552 31 0 0.0 0.0 0.00 0.01 0.00 92 1016.7
20260503043042 32 0 0.0 0.0 0.00 0.01 0.00 91 1016.8
20260503041552 32 0 0.0 0.0 0.00 0.01 0.00 91 1016.7
20260503040050 32 0 0.0 0.0 0.00 0.01 0.00 91 1016.7